Precipitable_Water
0.95 1.02 0.97 0.92 0.79 0.90 1.00 1.07 1.21 1.26 1.18 1.07 0.97 0.93 0.85 0.77 0.67 0.60 0.50 0.63 0.63 0.64 0.61 0.49 0.45 0.43 0.45 0.41 0.45 0.46 0.23 0.19 0.23 0.26 0.29 0.39 0.35 0.43 0.47 0.41 0.42 0.47 0.51 0.62 0.76
0.92 0.96 0.93 0.96 0.87 0.79 1.02 1.12 1.17 1.25 1.20 1.14 1.02 0.96 0.86 0.74 0.59 0.53 0.68 0.71 0.65 0.62 0.49 0.42 0.36 0.37 0.32 0.36 0.38 0.32 0.23 0.22 0.32 0.34 0.32 0.36 0.37 0.37 0.35 0.36 0.39 0.41 0.49 0.57 0.69
0.92 0.96 0.92 0.91 0.96 0.80 0.89 1.03 1.18 1.29 1.28 1.20 1.08 0.98 0.85 0.73 0.49 0.53 0.73 0.71 0.61 0.56 0.48 0.44 0.41 0.36 0.28 0.32 0.33 0.34 0.24 0.32 0.33 0.35 0.34 0.31 0.31 0.36 0.32 0.28 0.34 0.35 0.42 0.51 0.59
0.96 0.96 0.92 0.89 0.92 0.84 0.71 0.84 1.14 1.25 1.28 1.20 1.09 1.00 0.80 0.64 0.32 0.61 0.75 0.70 0.56 0.53 0.47 0.40 0.36 0.28 0.24 0.22 0.27 0.21 0.26 0.26 0.26 0.28 0.27 0.24 0.26 0.25 0.28 0.30 0.36 0.38 0.42 0.44 0.52
0.92 0.93 0.93 0.90 0.85 0.82 0.70 0.79 1.04 1.31 1.16 1.13 1.09 0.97 0.73 0.52 0.51 0.78 0.78 0.61 0.54 0.48 0.38 0.33 0.28 0.26 0.21 0.23 0.24 0.21 0.22 0.25 0.26 0.25 0.23 0.24 0.20 0.20 0.21 0.27 0.32 0.34 0.35 0.37 0.42
0.89 0.92 0.90 0.86 0.79 0.78 0.72 0.88 0.96 1.19 1.12 1.08 1.05 0.89 0.64 0.45 0.81 0.81 0.61 0.53 0.48 0.41 0.37 0.33 0.30 0.30 0.23 0.22 0.19 0.23 0.21 0.20 0.19 0.17 0.18 0.15 0.14 0.16 0.17 0.22 0.21 0.24 0.28 0.32 0.35
0.90 0.87 0.83 0.77 0.73 0.71 0.79 0.98 1.04 1.08 1.09 1.06 0.93 0.80 0.64 0.59 0.79 0.74 0.59 0.51 0.50 0.44 0.34 0.38 0.36 0.28 0.25 0.19 0.26 0.22 0.14 0.14 0.15 0.18 0.18 0.22 0.15 0.15 0.20 0.20 0.18 0.17 0.19 0.23 0.28
0.82 0.77 0.71 0.68 0.80 0.73 0.91 1.05 1.14 1.07 1.07 1.01 0.88 0.67 0.51 0.71 0.73 0.59 0.55 0.48 0.50 0.47 0.41 0.41 0.38 0.29 0.25 0.27 0.21 0.16 0.18 0.12 0.18 0.24 0.26 0.25 0.13 0.20 0.26 0.25 0.23 0.24 0.24 0.24 0.25
0.76 0.69 0.64 0.73 0.90 0.87 1.09 1.07 1.06 1.02 0.97 0.90 0.69 0.53 0.43 0.69 0.56 0.54 0.53 0.45 0.48 0.48 0.48 0.48 0.41 0.31 0.30 0.21 0.18 0.20 0.14 0.17 0.19 0.26 0.23 0.22 0.13 0.19 0.23 0.26 0.22 0.22 0.24 0.25 0.25
0.69 0.61 0.75 0.79 0.97 1.00 1.06 0.99 0.95 0.88 0.83 0.75 0.60 0.42 0.48 0.41 0.49 0.50 0.54 0.52 0.46 0.45 0.42 0.41 0.37 0.30 0.29 0.23 0.14 0.16 0.16 0.16 0.15 0.20 0.23 0.20 0.17 0.22 0.30 0.32 0.28 0.27 0.26 0.26 0.26
0.64 0.72 1.00 0.93 1.04 0.99 0.94 0.81 0.64 0.61 0.63 0.48 0.44 0.40 0.41 0.49 0.52 0.46 0.51 0.48 0.48 0.42 0.30 0.35 0.24 0.19 0.22 0.24 0.24 0.21 0.19 0.18 0.21 0.27 0.24 0.23 0.24 0.26 0.32 0.33 0.34 0.32 0.32 0.28 0.26
0.76 0.85 0.94 0.92 0.97 0.96 0.87 0.66 0.63 0.57 0.42 0.53 0.47 0.44 0.49 0.52 0.41 0.46 0.52 0.36 0.33 0.24 0.28 0.23 0.17 0.25 0.28 0.27 0.25 0.25 0.22 0.21 0.26 0.32 0.31 0.28 0.23 0.28 0.31 0.37 0.40 0.31 0.29 0.30 0.31
0.79 0.84 0.89 0.92 0.92 0.86 0.73 0.68 0.74 0.64 0.45 0.49 0.54 0.50 0.51 0.54 0.41 0.39 0.43 0.38 0.32 0.26 0.26 0.22 0.25 0.33 0.33 0.31 0.28 0.28 0.26 0.27 0.27 0.33 0.36 0.33 0.28 0.26 0.36 0.47 0.40 0.38 0.39 0.32 0.31
0.80 0.85 0.91 0.91 0.78 0.78 0.67 0.73 0.70 0.62 0.31 0.38 0.44 0.48 0.52 0.51 0.39 0.51 0.53 0.44 0.37 0.30 0.33 0.31 0.38 0.36 0.36 0.34 0.36 0.28 0.36 0.36 0.34 0.31 0.24 0.38 0.21 0.32 0.38 0.43 0.43 0.46 0.46 0.49 0.45
0.80 0.79 0.84 0.84 0.69 0.61 0.61 0.68 0.66 0.51 0.17 0.39 0.44 0.62 0.52 0.42 0.43 0.43 0.56 0.48 0.35 0.35 0.36 0.30 0.35 0.37 0.35 0.38 0.42 0.35 0.42 0.40 0.39 0.35 0.33 0.33 0.28 0.31 0.42 0.38 0.44 0.47 0.50 0.56 0.57
0.76 0.77 0.76 0.74 0.72 0.64 0.65 0.62 0.47 0.24 0.19 0.34 0.43 0.41 0.39 0.42 0.41 0.47 0.49 0.56 0.53 0.40 0.40 0.38 0.50 0.46 0.44 0.49 0.48 0.47 0.42 0.42 0.41 0.36 0.25 0.32 0.32 0.29 0.36 0.39 0.44 0.49 0.54 0.59 0.59
0.77 0.79 0.77 0.78 0.54 0.63 0.59 0.45 0.24 0.20 0.34 0.32 0.35 0.40 0.35 0.33 0.36 0.41 0.39 0.37 0.33 0.28 0.28 0.35 0.38 0.47 0.53 0.46 0.52 0.49 0.38 0.25 0.24 0.25 0.24 0.37 0.32 0.36 0.46 0.52 0.55 0.58 0.61 0.64 0.69
0.72 0.71 0.68 0.67 0.65 0.59 0.47 0.32 0.18 0.27 0.29 0.38 0.37 0.36 0.30 0.35 0.34 0.37 0.36 0.32 0.44 0.43 0.35 0.29 0.25 0.40 0.51 0.47 0.44 0.44 0.41 0.29 0.21 0.23 0.27 0.38 0.29 0.37 0.53 0.58 0.61 0.61 0.66 0.68 0.68
0.65 0.58 0.55 0.60 0.63 0.55 0.37 0.22 0.23 0.28 0.33 0.32 0.33 0.28 0.28 0.33 0.34 0.35 0.35 0.36 0.40 0.44 0.33 0.32 0.29 0.44 0.49 0.54 0.51 0.43 0.37 0.49 0.36 0.37 0.30 0.33 0.40 0.50 0.56 0.56 0.59 0.61 0.64 0.65 0.69
0.51 0.47 0.44 0.57 0.61 0.49 0.33 0.25 0.29 0.36 0.36 0.33 0.23 0.28 0.23 0.28 0.29 0.32 0.33 0.40 0.40 0.46 0.49 0.39 0.27 0.37 0.43 0.49 0.48 0.44 0.50 0.34 0.36 0.25 0.24 0.29 0.33 0.36 0.46 0.50 0.56 0.58 0.61 0.65 0.71
0.43 0.30 0.46 0.60 0.56 0.37 0.25 0.28 0.33 0.39 0.39 0.32 0.28 0.27 0.29 0.29 0.31 0.31 0.30 0.35 0.41 0.40 0.46 0.41 0.34 0.28 0.34 0.30 0.31 0.34 0.34 0.39 0.40 0.36 0.27 0.24 0.31 0.52 0.51 0.55 0.56 0.59 0.63 0.64 0.64
0.38 0.22 0.46 0.53 0.29 0.31 0.25 0.31 0.37 0.36 0.41 0.36 0.35 0.31 0.28 0.29 0.26 0.27 0.26 0.31 0.41 0.41 0.33 0.39 0.32 0.22 0.23 0.33 0.37 0.39 0.37 0.39 0.32 0.30 0.34 0.33 0.35 0.57 0.56 0.56 0.59 0.56 0.56 0.55 0.49
0.29 0.30 0.45 0.43 0.18 0.20 0.27 0.27 0.31 0.30 0.32 0.31 0.29 0.32 0.33 0.28 0.23 0.27 0.28 0.36 0.40 0.36 0.32 0.35 0.25 0.14 0.13 0.21 0.25 0.27 0.35 0.38 0.40 0.38 0.31 0.29 0.32 0.50 0.51 0.52 0.52 0.49 0.46 0.42 0.40
0.31 0.20 0.29 0.33 0.31 0.22 0.20 0.21 0.21 0.32 0.30 0.31 0.29 0.30 0.27 0.23 0.27 0.23 0.24 0.31 0.36 0.37 0.39 0.38 0.24 0.17 0.11 0.14 0.20 0.16 0.20 0.27 0.29 0.24 0.29 0.27 0.26 0.35 0.40 0.40 0.42 0.39 0.35 0.34 0.32
0.31 0.25 0.31 0.19 0.22 0.23 0.23 0.21 0.19 0.18 0.28 0.30 0.24 0.26 0.23 0.19 0.21 0.21 0.22 0.25 0.29 0.34 0.33 0.31 0.17 0.19 0.18 0.19 0.19 0.17 0.16 0.19 0.19 0.21 0.16 0.19 0.20 0.26 0.30 0.31 0.33 0.32 0.29 0.27 0.26
0.27 0.25 0.30 0.24 0.27 0.23 0.22 0.18 0.17 0.19 0.22 0.21 0.21 0.24 0.26 0.20 0.20 0.16 0.22 0.22 0.21 0.26 0.24 0.27 0.17 0.18 0.13 0.17 0.17 0.13 0.15 0.16 0.19 0.20 0.19 0.20 0.19 0.28 0.32 0.34 0.31 0.29 0.26 0.24 0.24
0.39 0.41 0.30 0.23 0.22 0.20 0.19 0.20 0.21 0.24 0.25 0.26 0.24 0.21 0.19 0.23 0.27 0.27 0.28 0.27 0.27 0.24 0.22 0.22 0.19 0.15 0.08 0.13 0.11 0.08 0.10 0.13 0.16 0.18 0.18 0.13 0.18 0.25 0.25 0.26 0.27 0.27 0.26 0.26 0.25
Wind_Speed
29 29 30 32 34 36 36 33 28 29 27 24 23 21 19 17 16 15 14 16 16 16 15 15 15 15 16 17 17 19 18 19 21 21 22 22 23 26 27 29 28 29 28 27 27
26 26 27 29 31 33 35 33 31 29 29 25 23 21 19 17 15 14 15 15 15 15 15 15 16 16 16 18 19 19 20 22 22 21 23 26 26 28 29 30 31 32 32 31 29
22 22 22 23 30 30 33 32 30 28 24 25 22 20 18 17 16 16 15 15 15 15 15 15 16 16 16 17 19 20 22 23 23 24 25 27 29 30 31 32 33 33 35 34 32
17 19 17 19 24 28 30 33 29 30 24 22 20 19 18 16 15 15 14 13 13 14 15 16 17 17 17 18 20 21 22 23 26 27 29 30 31 32 34 35 36 37 37 38 38
14 15 15 14 17 27 27 30 31 29 27 23 20 17 16 14 14 14 13 14 13 13 14 15 15 17 17 18 20 21 23 25 28 30 31 32 33 34 35 37 39 40 40 41 42
10 14 11 12 13 23 25 26 29 31 25 23 20 16 15 13 14 12 11 12 12 13 14 14 16 16 16 18 19 21 23 26 27 28 30 32 34 31 31 35 37 40 42 43 43
12 10 9 9 10 18 24 25 27 28 23 20 18 14 10 13 13 13 12 11 12 12 13 14 15 16 17 19 21 22 23 25 25 25 28 30 34 34 35 35 37 39 40 43 45
8 7 5 7 10 16 25 24 27 25 20 18 15 12 10 10 10 10 10 9 10 11 13 14 15 16 17 19 20 21 22 22 23 27 29 28 34 32 35 36 39 40 41 42 44
6 6 6 9 15 24 27 28 26 23 18 14 11 10 9 9 8 8 8 9 10 11 12 14 14 15 17 17 19 19 21 23 26 25 27 27 35 33 36 39 43 44 45 45 44
8 8 9 18 23 27 27 27 23 20 15 12 9 7 8 7 7 6 7 8 9 11 13 13 14 15 16 16 18 19 20 22 23 20 24 30 38 38 36 36 39 41 43 44 44
13 19 23 28 28 28 26 23 17 13 12 10 8 7 7 5 4 4 6 7 9 11 12 14 13 16 17 16 16 17 16 19 21 21 20 23 28 30 30 27 30 35 39 42 44
25 24 26 26 25 24 21 19 17 19 15 11 10 8 6 3 2 2 4 6 8 10 12 12 12 12 12 11 11 12 16 17 18 15 16 21 24 25 20 21 22 25 27 34 39
28 25 24 25 22 20 22 20 18 15 13 9 8 6 5 3 2 0 2 3 5 6 5 4 4 3 4 8 11 10 11 13 14 16 18 18 17 12 16 16 16 17 18 21 27
28 24 23 20 20 21 21 19 17 11 10 5 5 5 4 4 3 3 3 3 4 5 5 2 3 4 5 7 6 9 8 13 16 14 12 12 14 13 14 15 15 18 16 15 16
26 24 20 18 18 18 19 16 11 8 7 4 5 4 4 4 3 3 2 4 3 4 3 3 4 4 6 6 2 7 9 10 13 12 12 8 9 10 14 14 17 15 12 12 9
22 20 19 19 18 18 15 10 6 7 5 4 5 5 5 4 4 4 4 4 4 3 2 5 5 4 4 6 4 9 12 12 7 5 5 6 5 9 15 15 14 10 8 9 4
21 21 20 17 16 14 9 6 6 8 6 6 7 6 5 5 4 3 3 3 3 5 5 6 4 4 5 7 5 6 8 7 7 8 5 6 5 7 16 15 15 14 12 11 10
20 19 19 18 14 10 8 9 11 7 8 8 8 7 5 5 3 3 3 4 3 4 5 7 7 5 6 6 7 6 6 6 5 7 8 9 9 8 15 12 13 15 14 15 15
22 21 19 16 13 10 9 11 11 9 9 10 10 8 5 4 3 3 3 4 5 6 7 8 6 8 7 9 9 8 7 7 6 5 7 8 9 9 16 15 13 13 13 14 16
20 19 17 16 14 14 14 13 12 12 12 11 10 8 6 4 4 5 5 6 7 7 7 7 7 7 8 8 9 8 9 9 9 9 8 10 11 13 16 17 17 17 17 15 17
19 18 18 18 17 18 17 16 15 14 13 12 10 9 6 6 6 6 5 6 8 9 6 7 6 6 7 8 9 10 9 7 7 8 7 9 10 14 15 17 20 21 20 20 19
18 18 18 18 18 17 16 15 15 14 13 11 9 8 7 7 6 5 5 5 7 8 7 6 6 5 4 7 8 8 9 7 7 8 8 8 7 8 10 11 13 14 16 18 18
16 16 17 16 17 16 14 14 13 12 11 9 7 7 6 5 5 4 5 6 6 6 6 7 7 8 8 7 7 8 8 7 4 5 5 6 5 7 7 8 11 12 13 14 14
13 13 14 15 15 15 14 12 11 10 9 8 7 6 5 4 4 4 5 6 7 6 6 7 6 6 6 5 7 7 8 8 5 5 4 2 3 3 4 5 5 7 9 10 11
10 10 10 10 11 12 11 10 9 9 8 8 7 7 5 5 5 4 6 6 6 7 7 7 5 5 5 4 4 4 5 6 5 4 4 4 2 1 2 3 4 5 7 7 9
8 7 7 8 6 7 7 7 7 6 6 5 5 4 4 3 3 4 6 5 5 6 7 6 5 7 6 5 5 5 3 2 3 4 3 4 2 2 3 4 4 4 5 5 6
6 5 5 5 5 5 4 4 4 4 3 2 2 3 2 2 2 2 3 3 3 5 5 6 6 8 5 7 8 5 2 1 1 1 2 2 1 3 3 3 3 2 1 1 2
Wind_Direction
245 243 239 236 233 230 227 227 225 221 223 225 226 229 233 239 242 242 248 252 254 260 259 260 261 261 260 260 261 258 263 263 264 258 260 261 261 259 258 255 255 254 252 253 258
241 238 236 235 230 227 225 223 224 224 222 221 223 227 230 235 236 244 250 253 256 258 258 261 263 262 263 263 264 261 262 259 263 264 265 265 262 262 261 258 256 256 254 254 254
233 231 233 234 224 223 220 221 218 211 210 216 220 223 227 232 238 248 251 253 257 257 257 260 262 263 264 265 267 266 263 264 267 268 270 268 267 263 261 260 256 254 255 254 252
225 221 225 227 224 219 218 215 213 211 209 212 217 221 226 235 236 242 248 252 257 258 261 264 266 265 264 265 269 267 268 269 270 271 271 269 268 265 261 260 260 259 255 254 253
218 211 215 226 224 214 214 209 208 201 209 216 216 218 225 231 234 242 244 253 260 262 265 264 267 265 265 270 272 270 273 274 273 273 270 269 266 266 263 264 262 260 257 254 252
205 197 206 218 216 207 204 202 203 198 204 209 212 219 226 230 234 238 247 255 261 263 267 268 265 267 268 271 272 274 274 275 274 272 271 270 270 267 267 266 264 261 256 254 252
147 175 192 203 207 196 191 191 188 191 198 203 206 213 219 229 232 240 250 258 264 265 266 270 270 270 271 274 277 278 281 280 277 276 275 275 272 267 270 268 265 262 258 254 251
121 132 156 176 180 183 176 176 170 172 174 183 196 208 218 224 223 238 246 258 267 269 269 274 275 273 276 277 282 283 280 281 279 282 279 274 271 273 275 273 268 264 260 257 252
127 135 130 147 141 147 152 154 162 165 171 178 191 198 206 212 224 237 252 258 268 276 281 279 280 278 281 281 284 286 281 282 286 284 281 276 278 276 275 276 271 265 261 257 253
102 117 130 140 137 141 141 147 148 154 161 166 174 180 197 208 219 238 256 270 277 281 284 287 284 282 283 283 278 282 287 285 281 286 286 281 279 281 281 275 271 266 260 255 251
114 112 115 134 126 128 142 140 146 147 140 151 156 148 161 178 217 246 269 282 287 291 288 288 288 281 277 275 279 283 281 284 284 287 293 289 284 287 287 283 280 271 262 256 251
107 112 110 119 123 129 138 133 135 140 124 118 122 125 139 162 189 275 289 300 305 298 294 294 285 281 278 278 273 276 284 287 293 295 295 296 295 295 291 293 290 283 270 258 251
99 103 111 116 120 121 128 130 130 132 124 113 116 122 128 107 93 338 338 344 351 336 327 305 291 310 289 288 288 283 279 288 288 305 295 300 300 299 303 306 306 303 291 273 254
88 100 109 109 113 121 124 128 126 126 122 107 116 119 120 112 62 49 39 16 357 350 5 3 354 332 316 299 283 305 294 288 296 307 314 328 312 312 312 307 314 314 306 293 271
86 91 97 106 113 117 125 124 121 122 114 132 121 126 119 105 110 53 48 27 4 6 34 339 345 328 325 317 307 304 317 315 308 301 314 323 319 333 339 322 322 323 318 315 291
81 86 95 99 104 116 120 111 103 102 115 121 129 120 117 114 95 77 46 39 26 3 317 309 354 346 338 343 304 318 324 323 340 346 343 350 343 2 6 353 341 340 350 356 1
75 81 90 97 104 113 108 84 86 100 128 129 126 122 119 109 98 84 46 32 34 9 12 6 21 9 8 351 349 349 359 12 24 30 22 21 29 6 2 12 19 31 31 42 64
73 80 85 91 95 96 89 83 87 113 121 122 123 124 115 110 90 64 33 25 46 44 18 28 18 37 32 13 13 26 34 34 17 19 9 24 8 11 11 6 16 30 50 60 66
76 76 77 77 80 83 80 83 115 121 119 121 120 118 112 96 94 56 70 57 53 61 48 38 31 32 43 45 44 37 27 17 5 16 25 19 21 25 13 25 32 37 54 60 64
69 71 68 61 73 84 87 94 102 110 113 115 117 114 97 85 85 77 68 69 48 52 39 27 15 34 31 46 34 38 27 37 44 37 36 34 40 35 35 44 52 60 63 70 69
64 68 65 67 81 84 92 96 99 105 108 107 110 105 98 90 87 84 70 47 44 33 33 20 42 12 32 36 31 28 36 40 49 56 52 41 48 46 53 63 63 67 74 76 77
64 70 66 76 83 87 93 98 97 99 101 101 103 102 96 88 75 70 57 45 27 24 26 38 45 14 15 12 21 39 36 50 65 43 60 66 55 71 64 65 61 70 73 74 73
69 69 70 77 83 86 91 96 100 96 96 95 91 86 84 78 64 59 32 20 24 32 39 47 40 27 20 27 28 41 28 34 49 54 60 74 65 65 70 72 74 78 74 69 67
67 67 70 73 83 89 89 89 93 92 96 90 85 87 74 64 62 30 23 23 23 40 39 54 53 65 64 47 45 24 20 37 60 59 72 82 68 78 84 77 82 77 73 68 64
58 68 77 74 76 81 87 88 87 81 83 76 83 76 67 52 36 34 23 19 42 42 47 44 34 41 4 355 21 13 11 31 59 66 74 45 112 78 122 117 103 97 86 72 63
57 64 71 71 84 88 81 91 85 75 79 74 75 43 54 47 41 21 37 41 42 25 32 27 21 11 2 31 9 346 332 357 32 54 57 79 49 116 114 113 114 113 91 68 52
39 47 59 67 83 85 102 103 93 66 63 68 49 22 2 354 357 337 338 338 341 1 4 15 8 6 351 357 339 350 352 155 36 29 76 106 140 107 128 147 152 145 113 48 31